Haines, AK

6:18 AM AKST on February 24, 2017 (GMT -0900)
Haines

Weather History for PAHN - May, 2014

Change the Weather History Date:

Thursday, May 8, 2014

  Actual Average Record
Temperature  
Mean Temperature 52 °F -  
Max Temperature 64 °F 52 °F 76 °F (1981)
Min Temperature 39 °F 38 °F 32 °F (2002)
Degree Days  
Heating Degree Days 14    
Growing Degree Days 2 (Base 50)    
Moisture  
Dew Point 35 °F    
Average Humidity 55    
Maximum Humidity 83    
Minimum Humidity 31    
Precipitation  
Precipitation 0.00 in - - ()
Sea Level Pressure  
Sea Level Pressure 29.71 in    
Wind  
Wind Speed 3 mph (WSW)    
Max Wind Speed 13 mph    
Max Gust Speed -    
Visibility 10 miles    
Events      
Averages and records for this station are not official NWS values.
T = Trace of Precipitation, MM = Missing Value Source: NWS Daily Summary

Daily Weather History Graph

Daily Weather History Graph

Search for Another Location

Airport or City:

Trip Planner

Search our weather history database for the weather conditions in past years. The results will help you decide how hot, cold, wet, or windy it might be!

Date:

Astronomy

May. 08, 2014 Rise Set
Actual Time 4:45 AM AKDT 9:13 PM AKDT
Civil Twilight 3:50 AM AKDT 10:09 PM AKDT
Nautical Twilight 2:16 AM AKDT 11:46 PM AKDT
Astronomical Twilight Sun does not rise Sun does not rise
Moon 1:55 PM AKDT (5/8) 2:51 AM AKDT (5/8)
Length of Visible Light 18h 18m
Length of Day
16h 27m
Waxing Gibbous, 66% of the Moon is Illuminated
May 8
Waxing Gibbous
May 14
Full
May 21
Last Quarter
May 28
New
Jun 5
First Quarter

Hourly Weather History & Observations

Time (AKDT) Temp. Windchill Dew Point Humidity Pressure Visibility Wind Dir Wind Speed Gust Speed Precip Events Conditions
12:54 AM 43.0 °F - 35.1 °F 74% 29.77 in 10.0 mi Calm Calm - N/A   Clear
1:54 AM 42.1 °F - 35.1 °F 76% 29.76 in 10.0 mi Calm Calm - N/A   Clear
2:54 AM 41.0 °F - 35.1 °F 79% 29.76 in 10.0 mi Calm Calm - N/A   Clear
3:54 AM 39.9 °F - 34.0 °F 79% 29.75 in 10.0 mi Calm Calm - N/A   Clear
4:54 AM 39.9 °F - 34.0 °F 79% 29.75 in 10.0 mi Calm Calm - N/A   Clear
5:54 AM 39.9 °F - 35.1 °F 83% 29.75 in 10.0 mi Calm Calm - N/A   Clear
6:54 AM 41.0 °F 37.1 °F 36.0 °F 82% 29.75 in 10.0 mi WNW 5.8 mph - N/A   Clear
7:54 AM 44.1 °F 42.5 °F 36.0 °F 73% 29.75 in 10.0 mi WNW 3.5 mph - N/A   Clear
8:54 AM 48.9 °F - 36.0 °F 61% 29.74 in 10.0 mi WNW 6.9 mph - N/A   Clear
9:54 AM 54.0 °F - 36.0 °F 51% 29.72 in 10.0 mi WNW 11.5 mph - N/A   Partly Cloudy
10:54 AM 57.9 °F - 35.1 °F 42% 29.71 in 10.0 mi WNW 11.5 mph - N/A   Scattered Clouds
11:54 AM 62.1 °F - 35.1 °F 37% 29.70 in 10.0 mi West 10.4 mph - N/A   Clear
12:54 PM 63.0 °F - 33.1 °F 33% 29.69 in 10.0 mi North - - N/A   Overcast
1:54 PM 63.0 °F - 35.1 °F 35% 29.68 in 10.0 mi South 4.6 mph - N/A   Clear
2:54 PM 64.0 °F - 37.9 °F 38% 29.67 in 10.0 mi South 5.8 mph - N/A   Clear
3:54 PM 64.9 °F - 36.0 °F 34% 29.67 in 10.0 mi South 5.8 mph - N/A   Clear
4:54 PM 64.0 °F - 39.0 °F 40% 29.66 in 10.0 mi SSE 4.6 mph - N/A   Clear
5:54 PM 63.0 °F - 43.0 °F 48% 29.65 in 10.0 mi SSE 5.8 mph - N/A   Clear
6:54 PM 64.0 °F - 33.1 °F 31% 29.65 in 10.0 mi WNW 12.7 mph - N/A   Clear
7:54 PM 62.1 °F - 30.9 °F 31% 29.65 in 10.0 mi NW 10.4 mph - N/A   Clear
8:54 PM 57.9 °F - 32.0 °F 37% 29.67 in 10.0 mi Variable 5.8 mph - N/A   Clear
9:54 PM 51.1 °F - 36.0 °F 56% 29.68 in 10.0 mi Calm Calm - N/A   Clear
10:54 PM 48.0 °F - 37.0 °F 66% 29.70 in 10.0 mi Calm Calm - N/A   Clear
11:54 PM 48.9 °F - 36.0 °F 61% 29.70 in 10.0 mi Variable 4.6 mph - N/A   Clear